Location: Newark
(49.2191°N, 12.6671°E)
Time: 04:22:05
(UTC+00:00)

Transit 4A - Pass Details

Date: 02 February 2020
Orbit: 872 x 973 km, 66.8° (Epoch: 19 February)

Event Time Altitude Azimuth Distance (km) Brightness Sun altitude
Rises 09:11:33 0° 315° (NW) 3,484 10.3 17.7°
Reaches altitude 10° 09:15:12 10° 338° (NNW) 2,536 9.7 18.1°
Maximum altitude 09:18:35 15° 13° (NNE) 2,165 9.5 18.3°
Drops below altitude 10° 09:21:57 10° 49° (NE) 2,530 10.1 18.6°
Sets 09:25:35 0° 72° (ENE) 3,472 11.0 18.9°
